Regional Weather Roundup
Issued by NWS

Home | Current Version | Previous Version | Graphics & Text | Print | Product List | Glossary On
Versions: 1 2 3 4 5 6 7 8 9 10 11 12 13 14 15 16 17 18 19 20 21 22 23 24 25 26 27 28 29 30 31 32 33 34 35 36 37 38 39 40 41 42 43 44 45 46 47 48 49 50
000
ASUS43 KMKX 012021
RWRWI

WISCONSIN REGIONAL WEATHER ROUNDUP
NATIONAL WEATHER SERVICE MILWAUKEE/SULLIVAN WI
300 PM CDT TUE SEP 01 2015

NOTE: "FAIR" INDICATES FEW OR NO CLOUDS BELOW 12,000 FEET WITH NO
SIGNIFICANT WEATHER AND/OR OBSTRUCTIONS TO VISIBILITY.

WIZ001-002-006>008-014>016-023>028-012100-
NORTHWEST WISCONSIN

CITY           SKY/WX    TMP DP  RH WIND       PRES   REMARKS
SUPERIOR ARPT  MOSUNNY   83  70  64 SW3       29.88S HX  87
ASHLAND        PTSUNNY   85  74  69 SW8       29.89F HX  92
HAYWARD        PTSUNNY   82  69  64 S12       29.92S HX  85
SIREN          PTSUNNY   85  69  58 SW8       29.90F HX  88
CUMBERLAND     PTSUNNY   81  68  65 S7        29.93S HX  83
RICE LAKE      PTSUNNY   82  70  66 S8        29.94R HX  86
CHETEK         PTSUNNY  N/A N/A N/A MISG      29.93R
LADYSMITH      PTSUNNY   83  69  63 S9        29.95F HX  86
EAU CLAIRE     MOSUNNY   86  71  60 S7        29.91S HX  91
MENOMONIE      PTSUNNY   89  72  57 S6        29.91S HX  95
NEW RICHMOND   CLOUDY    83  70  64 S7        29.92S HX  86
OSCEOLA        PTSUNNY   85  71  63 S5        29.94R HX  89
$$

WIZ003>005-009-010-017-018-012100-
NORTH CENTRAL WISCONSIN

CITY           SKY/WX    TMP DP  RH WIND       PRES   REMARKS
MANITOWISH WTR PTSUNNY   78  69  73 SW8       29.96S HX  81
ARBOR VITAE    PTSUNNY   80  67  64 W9        29.96S HX  82
WOODRUFF       PTSUNNY   80  67  64 W9        29.96S HX  82
RHINELANDER    PTSUNNY   82  67  60 SW10      29.98R HX  84
EAGLE RIVER    PTSUNNY   80  64  57 SW8       29.96S HX  82
LAND O LAKES   PTSUNNY   81  66  60 W5        29.97R HX  83
PHILLIPS       PTSUNNY   80  69  67 SW7       29.95F HX  83
TOMAHAWK       PTSUNNY   81  67  61 W6        29.97S HX  83
MEDFORD        CLOUDY    80  70  71 SW6       29.96S HX  84
MERRILL        PTSUNNY   83  70  64 W10       29.96S HX  87
$$

WIZ029-030-035-036-043>047-012100-
CENTRAL WISCONSIN

CITY           SKY/WX    TMP DP  RH WIND       PRES   REMARKS
WAUSAU         MOSUNNY   84  68  58 S7        29.94F HX  87
MOSINEE        NOT AVBL
MARSHFIELD     PTSUNNY   87  68  52 SW10      29.95F HX  90
STEVENS POINT  MOSUNNY   85  67  54 SW10      29.96S HX  87
WAUPACA        MOSUNNY   89  67  49 S12       29.95F HX  91
WAUTOMA        MOSUNNY   89  69  51 S14       29.96S HX  93
WISC RAPIDS    MOSUNNY   88  67  49 SW10      29.96F HX  91
CAMP DOUGLAS   MOSUNNY   88  73  62 S12       29.94F HX  96
$$

WIZ011>013-019>022-031-037>040-048>050-012100-
NORTHEAST WISCONSIN

CITY           SKY/WX    TMP DP  RH WIND       PRES   REMARKS
ANTIGO         PTSUNNY   83  67  58 SW9       29.97F HX  86
SHAWANO        MOSUNNY   89  66  46 W12       29.94S HX  91
OCONTO         PTSUNNY   87  73  64 SW5       29.92F HX  94
STURGEON BAY   PTSUNNY   79  70  73 S9        29.97S HX  81
GREEN BAY      MOSUNNY   87  73  62 SW9       29.94F HX  94
MANITOWOC      MOSUNNY   83  71  67 MISG      29.96F HX  87
APPLETON       MOSUNNY   86  66  51 S12       29.94F HX  88
CLINTONVILLE   PTSUNNY   86  68  54 SW12      29.94S HX  89
OSHKOSH        MOSUNNY   85  69  58 SW13      29.95F HX  89
$$

WIZ032>034-041-042-053>061-012100-
SOUTHWEST WISCONSIN

CITY           SKY/WX    TMP DP  RH WIND       PRES   REMARKS
LA CROSSE      SUNNY     89  73  59 S13       29.91F HX  97
SPARTA         MOSUNNY   88  68  51 S7        29.94F HX  92
VIROQUA          N/A     86  71  61 S8        29.97F HX  92
BOSCOBEL       SUNNY     91  72  53 S9G17     29.95S HX  98
PRAIRIE DU CHI SUNNY     87  70  56 SE9       29.94F HX  92
PLATTEVILLE    SUNNY     86  74  68 S15       29.98F HX  94
$$

WIZ056-057-062-063-064-067-068-012100-
SOUTH CENTRAL WISCONSIN

CITY           SKY/WX    TMP DP  RH WIND       PRES   REMARKS
REEDSBURG      MOSUNNY   88  73  60 S13       29.95F HX  95
BARABOO/DELLS  MOSUNNY   88  67  49 SW10      29.96F HX  91
LONE ROCK      SUNNY     88  72  58 SW13      29.96F HX  94
MINERAL POINT  SUNNY     88  72  58 S12       29.99F HX  94
MADISON        PTSUNNY   87  69  54 SW9G17    29.96F HX  91
MIDDLETON      SUNNY     89  68  49 SW12      29.98F HX  93
WATERTOWN      SUNNY     88  70  55 S13       29.97F HX  92
MONROE         MOSUNNY   86  70  58 S16       30.00S HX  90
JANESVILLE     MOSUNNY   90  70  51 S16       29.98F HX  95
$$

WIZ051-052-058>065-066-070>072-012100-
SOUTHEAST WISCONSIN

CITY           SKY/WX    TMP DP  RH WIND       PRES   REMARKS
MILWAUKEE      PTSUNNY   88  68  51 SW14      29.97F HX  91
WAUKESHA       MOSUNNY   84  66  54 SW14      30.00F HX  86
MILWAUKEE/TIMM MOSUNNY   88  64  45 SW9       29.99F HX  89
RACINE         MOSUNNY   84  70  62 S15       30.00F HX  88
BURLINGTON     SUNNY     86  68  54 S9        29.99F HX  90
KENOSHA        MOSUNNY   89  70  53 SW13      29.99F HX  94
FOND DU LAC    MOSUNNY   87  69  54 SW10      29.96F HX  91
SHEBOYGAN      SUNNY     88  68  51 SW10      29.96F HX  91
WEST BEND      MOSUNNY   88  64  45 S13       29.98F HX  89
JUNEAU         MOSUNNY   86  71  60 S12G18    29.98F HX  90
$$

LSZ147-162-012100-
LAKE SUPERIOR

STATION/POSITION TIME  TEMP    WIND        PRES    WAVE
                       AIR SEA DIR/SP/G            HT/PER
                 (UTC) (F)     (DEG/KT/KT) (MB)    (FT/S)
W MID LAKE BUOY  1950   62 55  210/  8/  8 1011.8F   0
DEVILS ISLAND    2000   72     240/  6/  9 1011.8F
PORT WING        1940   73      20/  2/  4 1012.5S
SAXON HARBOR     1900   73        CALM     1012.2R
$$

LMZ867-665-643>646-012100-
LAKE MICHIGAN

STATION/POSITION TIME  TEMP    WIND        PRES    WAVE
                       AIR SEA DIR/SP/G            HT/PER
                 (UTC) (F)     (DEG/KT/KT) (MB)    (FT/S)
CHAMBERS ISLAND  1900   81     170/  5/  8 1013.9S
S GREEN BAY BUOY 2000   76 67  220/  8/  8 1015.0
N MID LAKE BUOY  1950   67 65  200/ 12/ 14 1014.1S   2/ 4
NORTHPORT PIER   1900   74     150/  7/ 13 1014.2S
SISTER BAY       1919   81     180/ 14/ 16   N/A
ALGOMA LAKESHORE 1944          200/  8/  9   N/A
KEWAUNEE LAKESHO 2000   54     170/ 12/ 13 1013.4F
SHEBOYGAN LAKESH 2000   71     180/ 21/ 22 1014.5F
PORT WASHINGTON  1940   64     170/  6/  8 1015.6F
ATWATER BUOY     2000   64 49  170/ 12/ 14 1016.3F
MILWAUKEE LAKESH 1910   67     150/ 14/ 15   N/A
S MID LAKE BUOY  1950   73 70  170/ 12/ 14 1015.5F   1/ 3
KENOSHA   LAKESH 2000   71     180/  8/ 11 1014.9F
$$

TC  - TEMPERATURE IN CELSIUS
VSB - VISIBILITY IN STATUTE MILES
WCI - WIND CHILL INDEX
HX  - HEAT INDEX



USA.gov is the U.S. government's official web portal to all federal, state and local government web resources and services.